GW0066 Weather Reports


time (UTC)temp
F
wind
direction
speed
knots
gust
knots
rain 1hr
in
rain 24hr
in
rain mn
in
humidity
%
barometer
mb
20260504220838 77 218 0.0 0.9 0.00 0.00 0.00 34 1009.5
20260504220338 78 134 0.9 0.9 0.00 0.00 0.00 33 1009.3
20260504215837 78 34 2.6 6.1 0.00 0.00 0.00 33 1009.2
20260504215338 78 124 0.0 0.0 0.00 0.00 0.00 34 1009.3
20260504214838 78 59 1.7 3.5 0.00 0.00 0.00 34 1009.4
20260504214338 78 108 3.5 3.5 0.00 0.00 0.00 33 1009.4
20260504213838 79 8 1.7 1.7 0.00 0.00 0.00 32 1009.4
20260504213338 79 107 0.0 0.9 0.00 0.00 0.00 33 1009.1
20260504212837 79 114 2.6 3.5 0.00 0.00 0.00 31 1009.4
20260504212338 79 42 0.9 1.7 0.00 0.00 0.00 32 1009.5
20260504211838 79 2 1.7 2.6 0.00 0.00 0.00 32 1009.2
20260504211337 80 322 0.9 0.9 0.00 0.00 0.00 30 1009.3
20260504210838 79 218 0.0 0.9 0.00 0.00 0.00 31 1009.2
20260504210338 80 279 3.5 6.1 0.00 0.00 0.00 31 1009.2
20260504205838 81 191 0.0 0.0 0.00 0.00 0.00 32 1009.2
20260504205338 80 125 0.9 0.9 0.00 0.00 0.00 30 1009.1
20260504204838 79 75 1.7 1.7 0.00 0.00 0.00 33 1009.2
20260504204337 80 49 1.7 2.6 0.00 0.00 0.00 31 1009.4
20260504203837 80 92 1.7 2.6 0.00 0.00 0.00 29 1009.3
20260504203337 81 108 0.9 1.7 0.00 0.00 0.00 29 1009.5
20260504202838 80 93 1.7 2.6 0.00 0.00 0.00 30 1009.4
20260504202337 80 59 2.6 3.5 0.00 0.00 0.00 30 1009.5
20260504201837 79 150 1.7 2.6 0.00 0.00 0.00 31 1009.7
20260504201337 80 130 4.3 6.1 0.00 0.00 0.00 29 1009.6
20260504200837 79 126 0.0 0.0 0.00 0.00 0.00 31 1009.6
20260504200337 79 133 1.7 1.7 0.00 0.00 0.00 30 1009.6
20260504195838 79 184 0.9 1.7 0.00 0.00 0.00 31 1010.0
20260504195337 78 243 1.7 5.2 0.00 0.00 0.00 30 1010.1
20260504194837 79 155 0.9 0.9 0.00 0.00 0.00 31 1010.1
20260504194337 78 122 0.9 0.9 0.00 0.00 0.00 31 1010.0
20260504193838 78 178 1.7 1.7 0.00 0.00 0.00 31 1010.0
20260504193337 79 195 2.6 3.5 0.00 0.00 0.00 32 1010.1
20260504192837 78 13 1.7 1.7 0.00 0.00 0.00 31 1010.3
20260504192337 78 129 0.0 0.9 0.00 0.00 0.00 32 1010.1
20260504191838 78 79 1.7 2.6 0.00 0.00 0.00 31 1010.5
20260504191337 78 95 0.9 1.7 0.00 0.00 0.00 31 1010.5
20260504190838 77 69 0.9 1.7 0.00 0.00 0.00 31 1010.8
20260504190338 77 129 0.9 0.9 0.00 0.00 0.00 34 1010.8
20260504185838 76 75 1.7 1.7 0.00 0.00 0.00 32 1010.9
20260504185337 77 97 0.9 0.9 0.00 0.00 0.00 32 1011.1
20260504184838 77 67 0.9 0.9 0.00 0.00 0.00 33 1010.9
20260504184337 77 149 0.9 2.6 0.00 0.00 0.00 33 1011.3
20260504183838 77 61 0.9 1.7 0.00 0.00 0.00 34 1011.0
20260504183338 77 262 3.5 5.2 0.00 0.00 0.00 31 1011.2
20260504182837 77 95 0.9 0.9 0.00 0.00 0.00 32 1011.2
20260504182338 76 114 0.9 0.9 0.00 0.00 0.00 31 1011.3
20260504181837 76 24 0.9 1.7 0.00 0.00 0.00 33 1011.5
20260504181337 75 142 2.6 3.5 0.00 0.00 0.00 32 1011.8
20260504180838 76 140 2.6 3.5 0.00 0.00 0.00 33 1011.4
20260504180337 76 111 0.9 0.9 0.00 0.00 0.00 34 1011.8
20260504175837 75 68 1.7 1.7 0.00 0.00 0.00 34 1012.1
20260504175338 76 102 0.9 0.9 0.00 0.00 0.00 32 1011.7
20260504174838 76 69 0.9 1.7 0.00 0.00 0.00 32 1011.9
20260504174338 75 98 0.0 1.7 0.00 0.00 0.00 34 1011.9
20260504173837 74 171 1.7 2.6 0.00 0.00 0.00 34 1011.9
20260504173338 74 84 2.6 2.6 0.00 0.00 0.00 34 1012.3
20260504172837 74 241 1.7 1.7 0.00 0.00 0.00 33 1012.3
20260504172337 74 134 0.9 0.9 0.00 0.00 0.00 34 1012.1
20260504171838 75 125 1.7 1.7 0.00 0.00 0.00 34 1012.1
20260504171337 73 133 0.0 0.0 0.00 0.00 0.00 36 1012.4
20260504170838 72 102 1.7 3.5 0.00 0.00 0.00 36 1012.5
20260504170338 73 107 0.9 0.9 0.00 0.00 0.00 35 1012.6
20260504160338 71 102 0.0 0.9 0.00 0.00 0.00 35 1013.0
20260504150838 68 73 1.7 1.7 0.00 0.00 0.00 36 1014.0
20260504150338 68 112 0.9 0.9 0.00 0.00 0.00 38 1013.6
20260504140838 65 170 0.9 0.9 0.00 0.00 0.00 41 1013.7
20260504140337 65 338 0.0 0.9 0.00 0.00 0.00 40 1013.8
20260504130337 58 91 1.7 2.6 0.00 0.00 0.00 51 1014.4
20260504110337 49 116 0.0 0.0 0.00 0.00 0.00 65 1014.7
20260504100337 48 116 0.0 0.0 0.00 0.00 0.00 63 1014.5
20260504081837 50 109 0.0 0.0 0.00 0.00 0.00 56 1014.9
20260504081337 50 100 0.9 0.9 0.00 0.00 0.00 55 1015.1
20260504080837 51 89 0.9 1.7 0.00 0.00 0.00 55 1014.9
20260504080338 51 132 0.9 0.9 0.00 0.00 0.00 55 1014.9
20260504070337 52 122 0.0 0.0 0.00 0.00 0.00 51 1014.9
20260504050337 48 115 0.0 0.0 0.00 0.00 0.00 57 1015.2
20260504045837 48 116 0.0 0.0 0.00 0.00 0.00 57 1015.4
20260504045338 48 116 0.0 0.0 0.00 0.00 0.00 57 1015.4
20260504044837 48 116 0.0 0.0 0.00 0.00 0.00 56 1015.5
20260504044337 48 116 0.0 0.0 0.00 0.00 0.00 56 1015.6
20260504043837 48 111 0.0 0.0 0.00 0.00 0.00 56 1015.5
20260504043337 48 116 0.0 0.0 0.00 0.00 0.00 55 1015.4
20260504042837 48 116 0.0 0.0 0.00 0.00 0.00 55 1015.4
20260504042338 48 113 0.0 0.0 0.00 0.00 0.00 54 1015.2
20260504041837 48 109 0.0 0.0 0.00 0.00 0.00 54 1015.4
20260504041337 48 114 0.0 0.0 0.00 0.00 0.00 54 1015.2
20260504040837 49 114 0.0 0.0 0.00 0.00 0.00 53 1015.2
20260504040338 49 117 0.0 0.0 0.00 0.00 0.00 53 1015.1
20260504035838 49 115 0.0 0.0 0.00 0.00 0.00 52 1015.3
20260504035337 49 116 0.0 0.0 0.00 0.00 0.00 51 1015.2
20260504034837 49 118 0.0 0.0 0.00 0.00 0.00 51 1015.2
20260504034338 49 117 0.0 0.0 0.00 0.00 0.00 52 1015.1
20260504033837 49 116 0.0 0.0 0.00 0.00 0.00 52 1015.5
20260504033338 49 116 0.0 0.0 0.00 0.00 0.00 52 1015.4
20260504032837 48 115 0.0 0.0 0.00 0.00 0.00 52 1015.3
20260504032338 48 114 0.0 0.0 0.00 0.00 0.00 54 1015.2
20260504031837 48 116 0.0 0.0 0.00 0.00 0.00 53 1015.1
20260504031337 49 116 0.0 0.0 0.00 0.00 0.00 52 1015.4
20260504030837 49 119 0.0 0.0 0.00 0.00 0.00 52 1015.1
20260504030337 49 110 0.0 0.0 0.00 0.00 0.00 52 1015.3
20260504025837 49 116 0.0 0.0 0.00 0.00 0.00 51 1015.4
20260504025338 49 116 0.0 0.0 0.00 0.00 0.00 51 1015.1
20260504024838 49 116 0.0 0.0 0.00 0.00 0.00 51 1015.0
20260504024338 50 118 0.0 0.0 0.00 0.00 0.00 52 1014.9
20260504023838 50 113 0.0 0.0 0.00 0.00 0.00 52 1015.2
20260504023338 50 116 0.0 0.0 0.00 0.00 0.00 52 1015.0
20260504022837 50 117 0.0 0.0 0.00 0.00 0.00 54 1014.9
20260504022338 50 121 0.0 0.0 0.00 0.00 0.00 53 1015.0
20260504021837 50 117 0.0 0.0 0.00 0.00 0.00 53 1014.8
20260504021337 50 120 0.0 0.0 0.00 0.00 0.00 53 1014.9
20260504020837 50 118 0.0 0.0 0.00 0.00 0.00 54 1014.9
20260504020337 50 118 0.0 0.0 0.00 0.00 0.00 54 1015.0
20260504015837 50 118 0.0 0.0 0.00 0.00 0.00 54 1014.9
20260504015337 50 122 0.0 0.0 0.00 0.00 0.00 53 1014.5
20260504014837 50 124 0.0 0.0 0.00 0.00 0.00 53 1014.6
20260504014337 51 119 0.0 0.0 0.00 0.00 0.00 51 1014.7
20260504013837 50 122 0.0 0.0 0.00 0.00 0.00 51 1014.4
20260504013338 50 115 0.0 0.0 0.00 0.00 0.00 51 1014.5
20260504012837 51 116 0.0 0.0 0.00 0.00 0.00 50 1014.3
20260504012337 51 116 0.0 0.0 0.00 0.00 0.00 50 1014.3
20260504011838 52 116 0.0 0.0 0.00 0.00 0.00 49 1014.4
20260504011338 51 119 0.0 0.0 0.00 0.00 0.00 48 1014.4
20260504010838 52 115 0.0 0.0 0.00 0.00 0.00 48 1014.5
20260504010338 52 116 0.0 0.0 0.00 0.00 0.00 47 1014.6
20260504005837 52 114 0.0 0.0 0.00 0.00 0.00 45 1014.5
20260504005338 53 118 0.0 0.0 0.00 0.00 0.00 45 1014.5
20260504004837 53 116 0.0 0.0 0.00 0.00 0.00 43 1014.3
20260504004338 54 117 0.0 0.0 0.00 0.00 0.00 42 1014.1
20260504003837 54 119 0.0 0.0 0.00 0.00 0.00 41 1014.1
20260504003338 55 119 0.0 0.0 0.00 0.00 0.00 42 1014.5
20260504002838 55 118 0.0 0.0 0.00 0.00 0.00 41 1014.2
20260504002337 56 117 0.0 0.0 0.00 0.00 0.00 40 1014.3
20260504001838 56 115 0.0 0.0 0.00 0.00 0.00 39 1014.1
20260504001338 57 118 0.0 0.0 0.00 0.00 0.00 37 1014.1
20260504000837 58 106 0.0 0.0 0.00 0.00 0.00 36 1014.0
20260504000337 58 112 0.0 0.0 0.00 0.00 0.00 35 1014.1
20260503235837 59 120 0.0 0.0 0.00 0.00 0.00 33 1014.0
20260503235338 59 120 0.0 0.0 0.00 0.00 0.00 33 1014.0
20260503234838 60 114 0.0 0.0 0.00 0.00 0.00 33 1014.0
20260503234337 60 99 0.0 0.9 0.00 0.00 0.00 32 1014.0
20260503233837 60 115 0.0 0.9 0.00 0.00 0.00 32 1013.9
20260503233337 61 80 0.9 0.9 0.00 0.00 0.00 32 1014.0
20260503232837 61 117 0.9 0.9 0.00 0.00 0.00 32 1013.9
20260503232337 61 120 0.9 0.9 0.00 0.00 0.00 31 1013.8
20260503231837 61 113 0.9 1.7 0.00 0.00 0.00 30 1013.6
20260503231337 61 17 0.9 1.7 0.00 0.00 0.00 30 1013.9
20260503230838 61 73 0.9 0.9 0.00 0.00 0.00 30 1013.7
20260503230337 62 354 1.7 2.6 0.00 0.00 0.00 29 1013.6
20260503225838 62 191 0.0 0.9 0.00 0.00 0.00 29 1013.8
20260503225338 62 139 1.7 1.7 0.00 0.00 0.00 28 1013.7
20260503224838 63 324 0.9 1.7 0.00 0.00 0.00 28 1013.8
20260503224338 63 188 0.9 1.7 0.00 0.00 0.00 28 1013.7
20260503223837 63 126 2.6 3.5 0.00 0.00 0.00 28 1013.8
20260503223337 63 120 1.7 3.5 0.00 0.00 0.00 28 1013.9
20260503222838 63 79 2.6 3.5 0.00 0.00 0.00 28 1013.8
20260503222338 63 195 0.9 2.6 0.00 0.00 0.00 28 1013.6
20260503221838 63 71 1.7 2.6 0.00 0.00 0.00 28 1013.8
20260503221337 63 245 1.7 2.6 0.00 0.00 0.00 27 1013.8